Regional Weather Roundup
Issued by NWS

Home | Current Version | Previous Version | Text Only | Print | Product List | Glossary On
Versions: 1 2 3 4 5 6 7 8 9 10 11 12 13 14 15 16 17 18 19 20 21 22 23 24 25 26 27 28 29 30 31 32 33 34 35 36 37 38 39 40 41 42 43 44 45 46 47 48 49 50
000
ASUS43 KTOP 271159
RWRKS

WEATHER ROUNDUP FOR KANSAS
NATIONAL WEATHER SERVICE GOODLAND KS
700 AM CDT TUE JUN 27 2017

NOTE:  "FAIR" INDICATES FEW OR NO CLOUDS BELOW 12,000 FEET WITH NO
SIGNIFICANT WEATHER AND/OR OBSTRUCTIONS TO VISIBILITY.

KSZ001>006-013>018-027>032-041>047-271300-
NORTHWEST KANSAS

CITY           SKY/WX    TMP DP  RH WIND       PRES   REMARKS
GOODLAND       CLOUDY    59  59 100 SE12      30.03F FOG
6HR MIN TEMP:  58; 6HR MAX TEMP:  63;

HILL CITY      CLOUDY    62  61  96 SE7       30.04S FOG
6HR MIN TEMP:  60; 6HR MAX TEMP:  65;

RUSSELL        CLOUDY    63  60  90 SE14      30.02F
6HR MIN TEMP:  62; 6HR MAX TEMP:  64;

$$

KSZ061>065-074>080-084>089-271300-
SOUTHWEST KANSAS

CITY           SKY/WX    TMP DP  RH WIND       PRES   REMARKS
DODGE CITY     CLEAR     66  64  93 SE12      30.01S FOG
6HR MIN TEMP:  63; 6HR MAX TEMP:  68;

GARDEN CITY    CLEAR     64  61  90 SE9       29.99F
6HR MIN TEMP:  63; 6HR MAX TEMP:  68;

GREAT BEND     CLOUDY    64  62  93 E12       30.03S
LIBERAL        CLEAR     65  61  87 S10       30.04R
$$

KSZ066>073-081>083-090>101-271300-
SOUTHEAST KANSAS

CITY           SKY/WX    TMP DP  RH WIND       PRES   REMARKS
CHANUTE        CLOUDY    63  62  97 E8        30.10R FOG
6HR MIN TEMP:  62; 6HR MAX TEMP:  65;

COFFEYVILLE    MOCLDY    66  64  93 CALM      30.07F
6HR MIN TEMP:  64; 6HR MAX TEMP:  66; 6HR PCP:  0.01;

HUTCHINSON     CLOUDY    65  62  90 SE10      30.05R
6HR MIN TEMP:  64; 6HR MAX TEMP:  67;

MEDICINE LODGE   N/A     66  63  90 SE9       30.02S
NEWTON         TSTM      63  62  97 SE9       30.07S FOG
PARSONS        PTCLDY    65  63  93 CALM      30.09S
6HR MIN TEMP:  63; 6HR MAX TEMP:  65; 6HR PCP:  0.01;

WICHITA INTL   CLOUDY    65  64  97 SE9       30.05S
6HR MIN TEMP:  65; 6HR MAX TEMP:  68; 6HR PCP: TRACE;

WICHITA JABRA  CLOUDY    64  63  96 E7        30.06R THUNDER
6HR MIN TEMP:  63; 6HR MAX TEMP:  65; 6HR PCP:  0.70;

WINFIELD       CLOUDY    65  63  93 SE8       30.07S
6HR MIN TEMP:  65; 6HR MAX TEMP:  68; 6HR PCP: TRACE;

$$

KSZ007>012-019>026-033>040-048>060-102>105-271300-
NORTHEAST KANSAS

CITY           SKY/WX    TMP DP  RH WIND       PRES   REMARKS
CONCORDIA      CLOUDY    58  58 100 E9        30.06F FOG
6HR MIN TEMP:  57; 6HR MAX TEMP:  60;

EMPORIA        CLOUDY    60  60 100 E8        30.08F
6HR MIN TEMP:  60; 6HR MAX TEMP:  63;

LAWRENCE       SUNNY     57  57 100 E5        30.11F
6HR MIN TEMP:  53; 6HR MAX TEMP:  58;

MANHATTAN      CLEAR     60  58  92 E5        30.08F
6HR MIN TEMP:  59; 6HR MAX TEMP:  62;

OLATHE IND     MOSUNNY   58  55  90 SE5       30.12S
6HR MIN TEMP:  57; 6HR MAX TEMP:  59;

OLATHE EXE     SUNNY     58  58 100 SE6       30.12S
6HR MIN TEMP:  56; 6HR MAX TEMP:  59;

SALINA         CLEAR     63  60  90 E7        30.05F
6HR MIN TEMP:  63; 6HR MAX TEMP:  68;

TOPEKA BILLARD CLEAR     59  58  96 SE5       30.10F
6HR MIN TEMP:  57; 6HR MAX TEMP:  61;

TOPEKA FORBES  CLEAR     60  58  92 SE6       30.10S
6HR MIN TEMP:  57; 6HR MAX TEMP:  61;

$$



USA.gov is the U.S. government's official web portal to all federal, state and local government web resources and services.